| time (UTC) | temp F | wind direction | speed MPH | gust MPH | rain 1hr in | rain 24hr in | rain mn in | humidity % | barometer mb |
| 20260507081503 | 50 | 277 | 2.0 | 4.0 | 0.00 | 0.00 | 0.00 | 56 | 1019.5 |
| 20260507080007 | 50 | 321 | 1.0 | 5.0 | 0.00 | 0.00 | 0.00 | 57 | 1019.6 |
| 20260507074508 | 51 | 242 | 2.0 | 5.0 | 0.00 | 0.00 | 0.00 | 54 | 1019.7 |
| 20260507073008 | 52 | 267 | 2.0 | 5.0 | 0.00 | 0.00 | 0.00 | 52 | 1019.5 |
| 20260507071506 | 56 | 254 | 2.0 | 11.0 | 0.00 | 0.00 | 0.00 | 47 | 1019.4 |
| 20260507070013 | 53 | 300 | 4.0 | 8.0 | 0.00 | 0.00 | 0.00 | 51 | 1019.3 |
| 20260507064512 | 55 | 259 | 2.0 | 4.0 | 0.00 | 0.00 | 0.00 | 48 | 1019.4 |
| 20260507063028 | 57 | 277 | 1.0 | 4.0 | 0.00 | 0.00 | 0.00 | 45 | 1019.3 |
| 20260507061508 | 57 | 236 | 1.0 | 3.0 | 0.00 | 0.00 | 0.00 | 45 | 1019.2 |
| 20260507060012 | 57 | 221 | 0.0 | 3.0 | 0.00 | 0.00 | 0.00 | 44 | 1019.2 |
| 20260507054507 | 58 | 207 | 2.0 | 4.0 | 0.00 | 0.00 | 0.00 | 43 | 1019.2 |
| 20260507053007 | 60 | 169 | 3.0 | 6.0 | 0.00 | 0.00 | 0.00 | 39 | 1019.1 |
| 20260507051528 | 60 | 184 | 0.0 | 3.0 | 0.00 | 0.00 | 0.00 | 39 | 1019.0 |
| 20260507050031 | 61 | 196 | 1.0 | 3.0 | 0.00 | 0.00 | 0.00 | 38 | 1018.8 |
| 20260507044526 | 62 | 219 | 2.0 | 8.0 | 0.00 | 0.00 | 0.00 | 37 | 1018.6 |
| 20260507043026 | 64 | 329 | 3.0 | 9.0 | 0.00 | 0.00 | 0.00 | 35 | 1018.3 |
| 20260507041527 | 64 | 324 | 7.0 | 10.0 | 0.00 | 0.00 | 0.00 | 36 | 1018.3 |
| 20260507040026 | 65 | 310 | 4.0 | 10.0 | 0.00 | 0.00 | 0.00 | 35 | 1018.2 |
| 20260507034539 | 66 | 323 | 5.0 | 10.0 | 0.00 | 0.00 | 0.00 | 34 | 1018.0 |
| 20260507033037 | 67 | 319 | 6.0 | 12.0 | 0.00 | 0.00 | 0.00 | 33 | 1017.8 |
| 20260507031544 | 67 | 345 | 4.0 | 7.0 | 0.00 | 0.00 | 0.00 | 32 | 1017.6 |
| 20260507030031 | 69 | 321 | 3.0 | 9.0 | 0.00 | 0.00 | 0.00 | 28 | 1017.4 |
| 20260507024528 | 70 | 310 | 6.0 | 11.0 | 0.00 | 0.00 | 0.00 | 26 | 1017.2 |
| 20260507023026 | 71 | 299 | 7.0 | 13.0 | 0.00 | 0.00 | 0.00 | 23 | 1017.0 |
| 20260507021507 | 72 | 313 | 7.0 | 16.0 | 0.00 | 0.00 | 0.00 | 22 | 1017.0 |
| 20260507020009 | 73 | 297 | 9.0 | 17.0 | 0.00 | 0.00 | 0.00 | 20 | 1017.0 |
| 20260507014508 | 74 | 313 | 9.0 | 19.0 | 0.00 | 0.00 | 0.00 | 21 | 1016.9 |
| 20260507013003 | 75 | 276 | 13.0 | 21.0 | 0.00 | 0.00 | 0.00 | 21 | 1016.8 |
| 20260507011511 | 75 | 294 | 7.0 | 17.0 | 0.00 | 0.00 | 0.00 | 20 | 1016.8 |
| 20260507010006 | 76 | 259 | 10.0 | 18.0 | 0.00 | 0.00 | 0.00 | 16 | 1016.8 |
| 20260507004507 | 77 | 277 | 10.0 | 23.0 | 0.00 | 0.00 | 0.00 | 16 | 1016.7 |
| 20260507003006 | 77 | 276 | 12.0 | 18.0 | 0.00 | 0.00 | 0.00 | 17 | 1016.7 |
| 20260507001506 | 78 | 311 | 11.0 | 19.0 | 0.00 | 0.00 | 0.00 | 18 | 1016.8 |
| 20260507000005 | 78 | 266 | 12.0 | 19.0 | 0.00 | 0.00 | 0.00 | 19 | 1016.8 |
| 20260506234528 | 77 | 266 | 11.0 | 20.0 | 0.00 | 0.00 | 0.00 | 22 | 1016.7 |
| 20260506233008 | 79 | 211 | 11.0 | 17.0 | 0.00 | 0.00 | 0.00 | 23 | 1016.5 |
| 20260506231509 | 78 | 214 | 11.0 | 22.0 | 0.00 | 0.00 | 0.00 | 19 | 1016.7 |
| 20260506230007 | 78 | 219 | 13.0 | 19.0 | 0.00 | 0.00 | 0.00 | 18 | 1016.8 |
| 20260506224504 | 78 | 270 | 8.0 | 21.0 | 0.00 | 0.00 | 0.00 | 19 | 1017.2 |
| 20260506223014 | 78 | 219 | 10.0 | 30.0 | 0.00 | 0.00 | 0.00 | 20 | 1017.6 |
| 20260506221530 | 79 | 257 | 10.0 | 20.0 | 0.00 | 0.00 | 0.00 | 21 | 1017.9 |
| 20260506220006 | 78 | 225 | 10.0 | 20.0 | 0.00 | 0.00 | 0.00 | 21 | 1018.1 |
| 20260506214506 | 77 | 249 | 10.0 | 18.0 | 0.00 | 0.00 | 0.00 | 24 | 1018.3 |
| 20260506213028 | 77 | 219 | 8.0 | 20.0 | 0.00 | 0.00 | 0.00 | 24 | 1018.6 |
| 20260506211506 | 76 | 252 | 10.0 | 18.0 | 0.00 | 0.00 | 0.00 | 25 | 1018.8 |
| 20260506210012 | 76 | 302 | 8.0 | 17.0 | 0.00 | 0.00 | 0.00 | 23 | 1018.6 |
| 20260506204506 | 77 | 236 | 9.0 | 17.0 | 0.00 | 0.00 | 0.00 | 24 | 1018.7 |
| 20260506203038 | 76 | 246 | 11.0 | 20.0 | 0.00 | 0.00 | 0.00 | 24 | 1018.9 |
| 20260506201536 | 75 | 240 | 8.0 | 17.0 | 0.00 | 0.00 | 0.00 | 27 | 1018.9 |
| 20260506200007 | 74 | 229 | 9.0 | 20.0 | 0.00 | 0.00 | 0.00 | 27 | 1018.9 |
| 20260506194526 | 74 | 221 | 3.0 | 16.0 | 0.00 | 0.00 | 0.00 | 30 | 1019.2 |
| 20260506193028 | 72 | 160 | 5.0 | 17.0 | 0.00 | 0.00 | 0.00 | 32 | 1019.3 |
| 20260506191529 | 73 | 258 | 7.0 | 17.0 | 0.00 | 0.00 | 0.00 | 32 | 1019.5 |
| 20260506190038 | 72 | 225 | 9.0 | 14.0 | 0.00 | 0.00 | 0.00 | 31 | 1019.6 |
| 20260506184543 | 72 | 207 | 6.0 | 14.0 | 0.00 | 0.00 | 0.00 | 34 | 1019.8 |
| 20260506183026 | 72 | 292 | 8.0 | 14.0 | 0.00 | 0.00 | 0.00 | 33 | 1020.1 |
| 20260506181528 | 71 | 315 | 7.0 | 13.0 | 0.00 | 0.00 | 0.00 | 33 | 1020.1 |
| 20260506180030 | 69 | 229 | 7.0 | 12.0 | 0.00 | 0.00 | 0.00 | 31 | 1020.3 |
| 20260506174530 | 69 | 213 | 4.0 | 12.0 | 0.00 | 0.00 | 0.00 | 33 | 1020.4 |
| 20260506173042 | 69 | 233 | 4.0 | 11.0 | 0.00 | 0.00 | 0.00 | 32 | 1020.5 |
| 20260506171529 | 68 | 242 | 5.0 | 10.0 | 0.00 | 0.00 | 0.00 | 33 | 1020.4 |
| 20260506170007 | 66 | 224 | 5.0 | 11.0 | 0.00 | 0.00 | 0.00 | 35 | 1020.6 |
| 20260506164509 | 65 | 248 | 4.0 | 9.0 | 0.00 | 0.00 | 0.00 | 36 | 1020.6 |
| 20260506163008 | 64 | 225 | 4.0 | 7.0 | 0.00 | 0.00 | 0.00 | 36 | 1020.5 |
| 20260506161506 | 63 | 252 | 2.0 | 8.0 | 0.00 | 0.00 | 0.00 | 44 | 1020.6 |
| 20260506160028 | 61 | 258 | 4.0 | 8.0 | 0.00 | 0.00 | 0.00 | 45 | 1020.6 |
| 20260506154510 | 59 | 249 | 5.0 | 9.0 | 0.00 | 0.00 | 0.00 | 48 | 1020.5 |
| 20260506153009 | 57 | 253 | 5.0 | 9.0 | 0.00 | 0.00 | 0.00 | 49 | 1020.5 |
| 20260506151529 | 56 | 277 | 5.0 | 8.0 | 0.00 | 0.00 | 0.00 | 52 | 1020.5 |
| 20260506150030 | 54 | 280 | 3.0 | 7.0 | 0.00 | 0.00 | 0.00 | 54 | 1020.4 |
| 20260506144533 | 52 | 274 | 2.0 | 4.0 | 0.00 | 0.00 | 0.00 | 57 | 1020.4 |
| 20260506143008 | 49 | 265 | 2.0 | 3.0 | 0.00 | 0.00 | 0.00 | 62 | 1020.2 |
| 20260506141509 | 48 | 195 | 2.0 | 3.0 | 0.00 | 0.00 | 0.00 | 62 | 1020.2 |
| 20260506140026 | 48 | 23 | 0.0 | 0.0 | 0.00 | 0.00 | 0.00 | 62 | 1019.7 |
| 20260506134528 | 46 | 23 | 0.0 | 3.0 | 0.00 | 0.00 | 0.00 | 63 | 1019.6 |
| 20260506133030 | 44 | 24 | 1.0 | 4.0 | 0.00 | 0.00 | 0.00 | 65 | 1019.5 |
| 20260506131508 | 43 | 355 | 2.0 | 3.0 | 0.00 | 0.00 | 0.00 | 68 | 1019.4 |
| 20260506130010 | 42 | 36 | 2.0 | 3.0 | 0.00 | 0.00 | 0.00 | 68 | 1019.3 |
| 20260506124507 | 42 | 199 | 2.0 | 4.0 | 0.00 | 0.00 | 0.00 | 67 | 1019.1 |
| 20260506123010 | 47 | 23 | 1.0 | 3.0 | 0.00 | 0.00 | 0.00 | 59 | 1018.9 |
| 20260506121510 | 48 | 284 | 1.0 | 4.0 | 0.00 | 0.00 | 0.00 | 58 | 1018.7 |
| 20260506120014 | 47 | 271 | 2.0 | 7.0 | 0.00 | 0.00 | 0.00 | 59 | 1018.6 |
| 20260506114508 | 48 | 283 | 3.0 | 6.0 | 0.00 | 0.00 | 0.00 | 58 | 1018.6 |
| 20260506113010 | 47 | 283 | 3.0 | 4.0 | 0.00 | 0.00 | 0.00 | 60 | 1018.4 |
| 20260506111507 | 47 | 282 | 2.0 | 3.0 | 0.00 | 0.00 | 0.00 | 61 | 1018.5 |
| 20260506110034 | 47 | 281 | 0.0 | 4.0 | 0.00 | 0.00 | 0.00 | 59 | 1018.4 |
| 20260506104531 | 47 | 148 | 1.0 | 3.0 | 0.00 | 0.00 | 0.00 | 60 | 1018.4 |
| 20260506103032 | 48 | 311 | 2.0 | 6.0 | 0.00 | 0.00 | 0.00 | 59 | 1018.3 |
| 20260506101541 | 48 | 281 | 1.0 | 4.0 | 0.00 | 0.00 | 0.00 | 58 | 1018.3 |
| 20260506100039 | 46 | 262 | 2.0 | 4.0 | 0.00 | 0.00 | 0.00 | 61 | 1018.3 |
| 20260506094530 | 51 | 313 | 3.0 | 11.0 | 0.00 | 0.00 | 0.00 | 54 | 1018.1 |
| 20260506093038 | 49 | 315 | 7.0 | 11.0 | 0.00 | 0.00 | 0.00 | 56 | 1018.1 |
| 20260506091529 | 49 | 313 | 4.0 | 8.0 | 0.00 | 0.00 | 0.00 | 55 | 1018.1 |
| 20260506090028 | 50 | 321 | 4.0 | 11.0 | 0.00 | 0.00 | 0.00 | 54 | 1018.1 |
| 20260506084530 | 49 | 312 | 8.0 | 11.0 | 0.00 | 0.00 | 0.00 | 55 | 1018.2 |
| 20260506083031 | 50 | 317 | 6.0 | 10.0 | 0.00 | 0.00 | 0.00 | 53 | 1018.1 |